Location: Muenchen
(48.1800°N, 11.5800°E)
Time: 10:55:16
(UTC+01:00)

Iridium 36 - Visible Passes

Search period start: 08 December 2016 00:00
Search period end: 18 December 2016 00:00
Orbit: 771 x 775 km, 86.4° (Epoch: 07 December)

Date Brightness Start Highest point End Pass type
(mag) Time Alt. Az. Time Alt. Az. Time Alt. Az.
13 Dec 8.1 07:14:24 10° NNE 07:17:36 16° ENE 07:20:46 10° ESE visible
16 Dec 8.0 07:09:57 10° NNE 07:13:48 20° ENE 07:17:37 10° ESE visible
17 Dec 8.3 06:36:38 10° NE 06:38:28 12° ENE 06:40:19 10° E visible
